QPF
0.02 0.05 0.14 0.17 0.12 0.13 0.18 0.10 0.05 0.01 0.00 0.01 0.02 0.04 0.06 0.05 0.03 0.01 0.00 0.00 0.00 0.00 0.00 0.00 0.00 0.01 0.02 0.03 0.01 0.01 0.00 0.00 0.00 0.00 0.00 0.00 0.00 0.00 0.00 0.00 0.00 0.00 0.00 0.00
0.04 0.04 0.12 0.13 0.07 0.07 0.07 0.04 0.03 0.02 0.02 0.03 0.05 0.09 0.11 0.08 0.04 0.01 0.01 0.00 0.00 0.00 0.00 0.00 0.00 0.01 0.03 0.03 0.02 0.01 0.00 0.00 0.00 0.00 0.00 0.00 0.00 0.00 0.00 0.00 0.00 0.00 0.00 0.00
0.07 0.03 0.09 0.08 0.04 0.04 0.03 0.02 0.01 0.02 0.02 0.03 0.06 0.10 0.11 0.07 0.03 0.02 0.01 0.00 0.00 0.00 0.00 0.00 0.01 0.03 0.03 0.02 0.01 0.00 0.00 0.00 0.00 0.00 0.00 0.00 0.00 0.00 0.00 0.00 0.00 0.00 0.00 0.00
0.10 0.08 0.14 0.09 0.05 0.03 0.02 0.01 0.01 0.01 0.01 0.02 0.05 0.05 0.04 0.02 0.02 0.01 0.01 0.00 0.00 0.00 0.00 0.00 0.01 0.01 0.01 0.01 0.00 0.00 0.00 0.00 0.00 0.00 0.00 0.00 0.00 0.00 0.00 0.00 0.00 0.00 0.00 0.00
0.12 0.11 0.09 0.05 0.04 0.03 0.03 0.02 0.01 0.01 0.01 0.01 0.01 0.02 0.02 0.01 0.01 0.01 0.00 0.00 0.00 0.00 0.00 0.00 0.00 0.00 0.00 0.00 0.00 0.00 0.00 0.00 0.00 0.00 0.00 0.00 0.00 0.00 0.00 0.00 0.00 0.00 0.00 0.00
0.07 0.06 0.04 0.03 0.02 0.02 0.03 0.03 0.01 0.01 0.01 0.01 0.01 0.02 0.01 0.00 0.00 0.00 0.00 0.00 0.00 0.00 0.00 0.00 0.00 0.00 0.00 0.00 0.00 0.00 0.00 0.00 0.00 0.00 0.00 0.00 0.00 0.00 0.00 0.00 0.00 0.00 0.00 0.00
0.02 0.02 0.01 0.01 0.00 0.00 0.01 0.01 0.00 0.01 0.01 0.01 0.02 0.01 0.00 0.00 0.00 0.00 0.00 0.00 0.00 0.00 0.00 0.00 0.00 0.00 0.00 0.00 0.00 0.00 0.00 0.00 0.00 0.00 0.00 0.00 0.00 0.00 0.00 0.00 0.00 0.00 0.00 0.00
0.00 0.00 0.00 0.00 0.00 0.00 0.00 0.00 0.00 0.00 0.01 0.01 0.01 0.01 0.00 0.00 0.00 0.00 0.00 0.00 0.00 0.00 0.00 0.00 0.00 0.00 0.00 0.00 0.00 0.00 0.00 0.00 0.00 0.00 0.00 0.00 0.00 0.00 0.00 0.00 0.00 0.00 0.00 0.00
0.00 0.00 0.00 0.00 0.00 0.00 0.00 0.00 0.00 0.00 0.00 0.01 0.01 0.01 0.01 0.01 0.00 0.00 0.00 0.00 0.00 0.00 0.00 0.00 0.00 0.00 0.00 0.00 0.00 0.00 0.00 0.00 0.00 0.00 0.00 0.00 0.00 0.00 0.00 0.00 0.00 0.00 0.00 0.00
0.00 0.00 0.00 0.00 0.00 0.00 0.00 0.00 0.00 0.00 0.00 0.00 0.00 0.00 0.00 0.00 0.00 0.00 0.00 0.00 0.00 0.00 0.00 0.00 0.00 0.00 0.00 0.00 0.00 0.00 0.00 0.00 0.00 0.00 0.00 0.00 0.00 0.00 0.00 0.00 0.00 0.00 0.00 0.00
0.00 0.00 0.00 0.00 0.00 0.00 0.00 0.00 0.00 0.00 0.00 0.00 0.00 0.00 0.00 0.00 0.00 0.00 0.00 0.00 0.00 0.00 0.00 0.00 0.00 0.00 0.00 0.00 0.00 0.00 0.00 0.00 0.00 0.00 0.00 0.00 0.00 0.00 0.00 0.00 0.00 0.00 0.00 0.00
0.00 0.00 0.00 0.00 0.00 0.00 0.00 0.00 0.00 0.00 0.00 0.00 0.00 0.00 0.00 0.00 0.00 0.00 0.00 0.00 0.00 0.00 0.00 0.00 0.00 0.00 0.00 0.00 0.00 0.00 0.00 0.00 0.00 0.00 0.00 0.00 0.00 0.00 0.00 0.00 0.00 0.00 0.00 0.00
0.00 0.00 0.00 0.00 0.00 0.00 0.00 0.00 0.00 0.00 0.00 0.00 0.00 0.00 0.00 0.00 0.00 0.00 0.00 0.00 0.00 0.00 0.00 0.00 0.00 0.00 0.00 0.00 0.00 0.00 0.00 0.00 0.00 0.00 0.00 0.00 0.00 0.00 0.00 0.00 0.00 0.00 0.00 0.00
0.00 0.00 0.00 0.00 0.00 0.00 0.00 0.00 0.00 0.00 0.00 0.00 0.00 0.00 0.00 0.00 0.00 0.00 0.00 0.00 0.00 0.00 0.00 0.00 0.00 0.00 0.00 0.00 0.00 0.00 0.00 0.00 0.00 0.00 0.00 0.00 0.00 0.00 0.00 0.00 0.00 0.00 0.00 0.00
0.00 0.00 0.00 0.00 0.00 0.00 0.00 0.00 0.00 0.00 0.00 0.00 0.00 0.00 0.00 0.00 0.00 0.00 0.00 0.00 0.00 0.00 0.00 0.00 0.00 0.00 0.00 0.00 0.00 0.00 0.00 0.00 0.00 0.00 0.00 0.00 0.00 0.00 0.00 0.00 0.00 0.00 0.00 0.00
0.00 0.00 0.00 0.00 0.00 0.00 0.00 0.00 0.00 0.00 0.00 0.00 0.00 0.00 0.00 0.00 0.00 0.00 0.00 0.00 0.00 0.00 0.00 0.00 0.00 0.00 0.00 0.00 0.00 0.00 0.00 0.00 0.00 0.00 0.00 0.00 0.00 0.00 0.00 0.00 0.00 0.00 0.00 0.00
0.00 0.00 0.00 0.00 0.00 0.00 0.00 0.00 0.00 0.00 0.00 0.00 0.00 0.00 0.00 0.00 0.00 0.00 0.00 0.00 0.00 0.00 0.00 0.00 0.00 0.00 0.00 0.00 0.00 0.00 0.00 0.00 0.00 0.00 0.00 0.00 0.00 0.00 0.00 0.00 0.00 0.00 0.00 0.00
0.00 0.00 0.00 0.00 0.00 0.00 0.00 0.00 0.00 0.00 0.00 0.00 0.00 0.00 0.00 0.00 0.00 0.00 0.00 0.00 0.00 0.00 0.00 0.00 0.00 0.00 0.00 0.00 0.00 0.00 0.00 0.00 0.00 0.00 0.00 0.00 0.00 0.00 0.00 0.00 0.00 0.00 0.00 0.00
0.00 0.00 0.00 0.00 0.00 0.00 0.00 0.00 0.00 0.00 0.00 0.00 0.00 0.00 0.00 0.00 0.00 0.00 0.00 0.00 0.00 0.00 0.00 0.00 0.00 0.00 0.00 0.00 0.00 0.00 0.00 0.00 0.00 0.00 0.00 0.00 0.00 0.00 0.00 0.00 0.00 0.00 0.00 0.00
0.00 0.00 0.00 0.00 0.00 0.00 0.00 0.00 0.00 0.00 0.00 0.00 0.00 0.00 0.00 0.00 0.00 0.00 0.00 0.00 0.00 0.00 0.00 0.00 0.00 0.00 0.00 0.00 0.00 0.00 0.00 0.00 0.00 0.00 0.00 0.00 0.00 0.00 0.00 0.00 0.00 0.00 0.00 0.00
0.00 0.00 0.00 0.00 0.00 0.00 0.00 0.00 0.00 0.00 0.00 0.00 0.00 0.00 0.00 0.00 0.00 0.00 0.00 0.00 0.00 0.00 0.00 0.00 0.00 0.00 0.00 0.00 0.00 0.00 0.00 0.00 0.00 0.00 0.00 0.00 0.00 0.00 0.00 0.00 0.00 0.00 0.00 0.00
0.00 0.00 0.00 0.00 0.00 0.00 0.00 0.00 0.00 0.00 0.00 0.00 0.00 0.00 0.00 0.00 0.00 0.00 0.00 0.00 0.00 0.00 0.00 0.00 0.00 0.00 0.00 0.00 0.00 0.00 0.00 0.00 0.00 0.00 0.00 0.00 0.00 0.00 0.00 0.00 0.00 0.00 0.00 0.00
0.00 0.00 0.00 0.00 0.00 0.00 0.00 0.00 0.00 0.00 0.00 0.00 0.00 0.00 0.00 0.00 0.00 0.00 0.00 0.00 0.00 0.00 0.00 0.00 0.00 0.00 0.00 0.00 0.00 0.00 0.00 0.00 0.00 0.00 0.00 0.00 0.00 0.00 0.00 0.00 0.00 0.00 0.00 0.00
0.00 0.00 0.00 0.00 0.00 0.00 0.00 0.00 0.00 0.00 0.00 0.00 0.00 0.00 0.00 0.00 0.00 0.00 0.00 0.00 0.00 0.00 0.00 0.00 0.00 0.00 0.00 0.00 0.00 0.00 0.00 0.00 0.00 0.00 0.00 0.00 0.00 0.00 0.00 0.00 0.00 0.00 0.00 0.00
0.00 0.00 0.00 0.00 0.00 0.00 0.00 0.00 0.00 0.00 0.00 0.00 0.00 0.00 0.00 0.00 0.00 0.00 0.00 0.00 0.00 0.00 0.00 0.00 0.00 0.00 0.00 0.00 0.00 0.00 0.00 0.00 0.00 0.00 0.00 0.00 0.00 0.00 0.00 0.00 0.00 0.00 0.00 0.00
0.00 0.00 0.00 0.00 0.00 0.00 0.00 0.00 0.00 0.00 0.00 0.00 0.00 0.00 0.00 0.00 0.00 0.00 0.00 0.00 0.00 0.00 0.00 0.00 0.00 0.00 0.00 0.00 0.00 0.00 0.00 0.00 0.00 0.00 0.00 0.00 0.00 0.00 0.00 0.00 0.00 0.00 0.00 0.00
0.00 0.00 0.00 0.00 0.00 0.00 0.00 0.00 0.00 0.00 0.00 0.00 0.00 0.00 0.00 0.00 0.00 0.00 0.00 0.00 0.00 0.00 0.00 0.00 0.00 0.00 0.00 0.00 0.00 0.00 0.00 0.00 0.00 0.00 0.00 0.00 0.00 0.00 0.00 0.00 0.00 0.00 0.00 0.00
MSLP
1009.52 1009.23 1008.85 1008.38 1007.81 1007.14 1006.40 1005.59 1004.75 1003.93 1003.16 1002.49 1001.95 1001.57 1001.35 1001.29 1001.36 1001.56 1001.85 1002.21 1002.64 1003.12 1003.66 1004.26 1004.92 1005.65 1006.43 1007.26 1008.13 1009.02 1009.92 1010.83 1011.74 1012.64 1013.54 1014.45 1015.33 1016.20 1017.01 1017.76 1018.39 1018.89 1019.24 1019.42
1008.82 1008.43 1007.96 1007.40 1006.77 1006.07 1005.34 1004.59 1003.85 1003.15 1002.52 1002.00 1001.60 1001.33 1001.20 1001.20 1001.33 1001.57 1001.89 1002.31 1002.80 1003.36 1003.99 1004.69 1005.44 1006.25 1007.10 1007.98 1008.88 1009.78 1010.67 1011.55 1012.42 1013.29 1014.14 1014.99 1015.83 1016.65 1017.41 1018.09 1018.67 1019.11 1019.40 1019.53
1008.04 1007.57 1007.01 1006.37 1005.69 1004.97 1004.26 1003.57 1002.93 1002.37 1001.89 1001.53 1001.27 1001.14 1001.11 1001.20 1001.39 1001.67 1002.04 1002.49 1003.03 1003.65 1004.34 1005.11 1005.94 1006.82 1007.73 1008.66 1009.59 1010.50 1011.39 1012.26 1013.10 1013.92 1014.73 1015.53 1016.30 1017.05 1017.74 1018.36 1018.86 1019.25 1019.48 1019.56
1007.22 1006.66 1006.03 1005.33 1004.61 1003.89 1003.22 1002.61 1002.09 1001.67 1001.36 1001.17 1001.08 1001.08 1001.18 1001.36 1001.62 1001.95 1002.35 1002.83 1003.40 1004.05 1004.78 1005.59 1006.47 1007.40 1008.35 1009.32 1010.27 1011.20 1012.09 1012.94 1013.76 1014.54 1015.30 1016.04 1016.74 1017.41 1018.02 1018.55 1018.98 1019.29 1019.46 1019.50
1006.38 1005.76 1005.07 1004.34 1003.61 1002.93 1002.31 1001.81 1001.42 1001.16 1001.03 1001.01 1001.09 1001.25 1001.49 1001.77 1002.10 1002.48 1002.91 1003.41 1003.98 1004.64 1005.38 1006.20 1007.09 1008.03 1009.00 1009.98 1010.95 1011.88 1012.77 1013.61 1014.40 1015.15 1015.86 1016.52 1017.15 1017.73 1018.24 1018.68 1019.02 1019.25 1019.37 1019.37
1005.57 1004.92 1004.21 1003.48 1002.78 1002.15 1001.63 1001.25 1001.01 1000.92 1000.97 1001.13 1001.38 1001.70 1002.06 1002.45 1002.85 1003.28 1003.73 1004.24 1004.81 1005.44 1006.17 1006.97 1007.84 1008.77 1009.73 1010.70 1011.66 1012.58 1013.46 1014.28 1015.04 1015.75 1016.40 1017.00 1017.54 1018.02 1018.44 1018.77 1019.02 1019.18 1019.23 1019.19
1004.85 1004.19 1003.50 1002.82 1002.19 1001.66 1001.26 1001.01 1000.93 1001.01 1001.23 1001.56 1001.97 1002.43 1002.90 1003.38 1003.85 1004.32 1004.80 1005.30 1005.85 1006.46 1007.14 1007.90 1008.73 1009.62 1010.55 1011.49 1012.42 1013.32 1014.17 1014.96 1015.68 1016.34 1016.93 1017.45 1017.91 1018.29 1018.61 1018.85 1019.01 1019.09 1019.08 1019.00
1004.22 1003.60 1002.98 1002.39 1001.87 1001.47 1001.22 1001.13 1001.20 1001.44 1001.80 1002.27 1002.81 1003.38 1003.95 1004.50 1005.03 1005.53 1006.02 1006.52 1007.05 1007.62 1008.27 1008.98 1009.76 1010.60 1011.47 1012.36 1013.24 1014.09 1014.90 1015.64 1016.32 1016.92 1017.44 1017.89 1018.25 1018.55 1018.77 1018.92 1019.00 1019.00 1018.93 1018.81
1003.69 1003.17 1002.66 1002.20 1001.84 1001.60 1001.50 1001.56 1001.78 1002.15 1002.63 1003.21 1003.83 1004.48 1005.11 1005.71 1006.27 1006.79 1007.30 1007.80 1008.31 1008.87 1009.47 1010.14 1010.87 1011.64 1012.45 1013.28 1014.10 1014.89 1015.63 1016.31 1016.92 1017.46 1017.91 1018.28 1018.57 1018.78 1018.92 1018.98 1018.98 1018.92 1018.80 1018.64
1003.25 1002.85 1002.50 1002.21 1002.03 1001.96 1002.03 1002.24 1002.58 1003.05 1003.62 1004.25 1004.92 1005.60 1006.26 1006.88 1007.47 1008.01 1008.53 1009.04 1009.56 1010.10 1010.68 1011.31 1011.99 1012.71 1013.45 1014.21 1014.95 1015.66 1016.33 1016.93 1017.47 1017.93 1018.31 1018.61 1018.82 1018.97 1019.03 1019.03 1018.97 1018.86 1018.69 1018.49
1002.88 1002.63 1002.46 1002.37 1002.37 1002.49 1002.72 1003.06 1003.50 1004.04 1004.65 1005.30 1005.98 1006.66 1007.32 1007.95 1008.54 1009.10 1009.64 1010.17 1010.70 1011.25 1011.83 1012.44 1013.08 1013.74 1014.42 1015.09 1015.75 1016.37 1016.95 1017.48 1017.93 1018.32 1018.62 1018.85 1019.01 1019.09 1019.10 1019.06 1018.95 1018.80 1018.61 1018.37
1002.54 1002.47 1002.49 1002.60 1002.80 1003.08 1003.45 1003.91 1004.43 1005.01 1005.63 1006.27 1006.93 1007.59 1008.23 1008.85 1009.45 1010.03 1010.59 1011.15 1011.71 1012.28 1012.87 1013.47 1014.08 1014.69 1015.30 1015.90 1016.47 1017.00 1017.48 1017.91 1018.29 1018.59 1018.83 1019.00 1019.11 1019.15 1019.13 1019.05 1018.92 1018.74 1018.52 1018.27
1002.24 1002.34 1002.55 1002.84 1003.21 1003.66 1004.16 1004.70 1005.27 1005.88 1006.49 1007.12 1007.75 1008.37 1008.99 1009.60 1010.21 1010.81 1011.41 1012.00 1012.60 1013.20 1013.80 1014.39 1014.97 1015.55 1016.09 1016.61 1017.09 1017.53 1017.92 1018.25 1018.54 1018.78 1018.95 1019.07 1019.14 1019.14 1019.10 1019.00 1018.86 1018.67 1018.44 1018.18
1001.99 1002.25 1002.61 1003.07 1003.59 1004.16 1004.76 1005.38 1006.00 1006.61 1007.22 1007.83 1008.43 1009.04 1009.64 1010.25 1010.87 1011.50 1012.13 1012.76 1013.40 1014.02 1014.63 1015.22 1015.78 1016.30 1016.79 1017.23 1017.62 1017.97 1018.27 1018.52 1018.73 1018.90 1019.02 1019.09 1019.13 1019.11 1019.05 1018.93 1018.78 1018.59 1018.35 1018.09
1001.82 1002.20 1002.69 1003.28 1003.91 1004.58 1005.26 1005.93 1006.58 1007.21 1007.83 1008.43 1009.03 1009.62 1010.23 1010.86 1011.50 1012.15 1012.82 1013.49 1014.15 1014.79 1015.41 1015.98 1016.51 1016.98 1017.41 1017.77 1018.08 1018.35 1018.57 1018.75 1018.89 1019.00 1019.07 1019.11 1019.11 1019.07 1018.99 1018.87 1018.71 1018.50 1018.26 1017.99
1001.78 1002.24 1002.82 1003.48 1004.19 1004.93 1005.65 1006.37 1007.05 1007.70 1008.33 1008.95 1009.56 1010.18 1010.81 1011.46 1012.13 1012.82 1013.51 1014.20 1014.88 1015.53 1016.13 1016.68 1017.17 1017.60 1017.96 1018.26 1018.51 1018.70 1018.86 1018.97 1019.06 1019.12 1019.16 1019.16 1019.13 1019.07 1018.97 1018.83 1018.65 1018.44 1018.19 1017.90
1001.88 1002.39 1003.01 1003.71 1004.45 1005.22 1005.97 1006.71 1007.42 1008.11 1008.77 1009.42 1010.07 1010.73 1011.40 1012.09 1012.79 1013.50 1014.22 1014.92 1015.60 1016.23 1016.81 1017.33 1017.78 1018.16 1018.47 1018.71 1018.91 1019.05 1019.16 1019.23 1019.28 1019.30 1019.30 1019.28 1019.22 1019.13 1019.00 1018.84 1018.64 1018.40 1018.13 1017.84
1002.16 1002.68 1003.30 1003.99 1004.73 1005.49 1006.26 1007.01 1007.75 1008.47 1009.17 1009.87 1010.57 1011.28 1012.00 1012.73 1013.47 1014.20 1014.92 1015.62 1016.28 1016.89 1017.43 1017.91 1018.32 1018.65 1018.92 1019.13 1019.29 1019.40 1019.48 1019.53 1019.55 1019.55 1019.52 1019.46 1019.38 1019.25 1019.10 1018.90 1018.68 1018.41 1018.12 1017.81
1002.62 1003.11 1003.69 1004.35 1005.05 1005.79 1006.54 1007.30 1008.06 1008.81 1009.56 1010.32 1011.08 1011.84 1012.61 1013.37 1014.13 1014.88 1015.60 1016.28 1016.90 1017.47 1017.98 1018.41 1018.78 1019.08 1019.32 1019.50 1019.64 1019.74 1019.80 1019.84 1019.85 1019.83 1019.78 1019.70 1019.59 1019.44 1019.25 1019.02 1018.76 1018.47 1018.15 1017.82
1003.24 1003.68 1004.20 1004.80 1005.45 1006.15 1006.87 1007.63 1008.39 1009.18 1009.97 1010.77 1011.58 1012.40 1013.20 1013.99 1014.77 1015.51 1016.21 1016.85 1017.44 1017.97 1018.43 1018.82 1019.15 1019.42 1019.64 1019.81 1019.95 1020.05 1020.11 1020.14 1020.15 1020.12 1020.06 1019.95 1019.81 1019.63 1019.41 1019.16 1018.87 1018.55 1018.21 1017.86
1003.97 1004.36 1004.82 1005.35 1005.94 1006.59 1007.29 1008.03 1008.80 1009.60 1010.43 1011.27 1012.12 1012.96 1013.79 1014.59 1015.36 1016.08 1016.74 1017.35 1017.89 1018.37 1018.78 1019.14 1019.44 1019.69 1019.89 1020.06 1020.20 1020.30 1020.37 1020.40 1020.40 1020.37 1020.29 1020.17 1020.01 1019.80 1019.56 1019.28 1018.97 1018.64 1018.29 1017.93
1004.78 1005.12 1005.53 1006.00 1006.54 1007.15 1007.81 1008.53 1009.31 1010.12 1010.96 1011.82 1012.69 1013.54 1014.37 1015.17 1015.92 1016.61 1017.23 1017.79 1018.28 1018.71 1019.08 1019.40 1019.67 1019.90 1020.09 1020.25 1020.38 1020.49 1020.55 1020.58 1020.58 1020.53 1020.44 1020.30 1020.13 1019.91 1019.65 1019.36 1019.05 1018.71 1018.36 1017.98
1005.63 1005.93 1006.30 1006.73 1007.24 1007.81 1008.46 1009.17 1009.93 1010.75 1011.60 1012.46 1013.33 1014.18 1014.99 1015.76 1016.47 1017.12 1017.70 1018.20 1018.65 1019.02 1019.35 1019.63 1019.87 1020.08 1020.26 1020.41 1020.52 1020.61 1020.67 1020.69 1020.66 1020.60 1020.49 1020.34 1020.15 1019.92 1019.66 1019.37 1019.06 1018.73 1018.38 1018.01
1006.47 1006.76 1007.10 1007.52 1008.01 1008.57 1009.21 1009.91 1010.68 1011.49 1012.33 1013.19 1014.04 1014.87 1015.65 1016.39 1017.05 1017.65 1018.18 1018.64 1019.03 1019.36 1019.65 1019.89 1020.10 1020.27 1020.42 1020.54 1020.64 1020.70 1020.72 1020.71 1020.66 1020.57 1020.44 1020.27 1020.07 1019.84 1019.58 1019.30 1019.00 1018.68 1018.33 1017.96
1007.24 1007.53 1007.89 1008.32 1008.81 1009.39 1010.03 1010.74 1011.50 1012.31 1013.14 1013.98 1014.81 1015.61 1016.36 1017.05 1017.67 1018.22 1018.70 1019.11 1019.46 1019.75 1020.00 1020.20 1020.37 1020.51 1020.62 1020.70 1020.75 1020.76 1020.74 1020.69 1020.59 1020.46 1020.30 1020.11 1019.90 1019.66 1019.41 1019.13 1018.84 1018.53 1018.18 1017.80
1007.90 1008.22 1008.61 1009.07 1009.60 1010.19 1010.86 1011.58 1012.35 1013.15 1013.97 1014.79 1015.59 1016.36 1017.07 1017.72 1018.31 1018.82 1019.26 1019.63 1019.94 1020.20 1020.40 1020.57 1020.69 1020.79 1020.85 1020.87 1020.86 1020.82 1020.74 1020.63 1020.48 1020.31 1020.11 1019.89 1019.66 1019.41 1019.15 1018.88 1018.58 1018.27 1017.91 1017.51
1008.40 1008.77 1009.21 1009.71 1010.28 1010.92 1011.61 1012.35 1013.13 1013.93 1014.74 1015.54 1016.32 1017.06 1017.74 1018.36 1018.92 1019.40 1019.81 1020.16 1020.44 1020.67 1020.84 1020.97 1021.05 1021.09 1021.09 1021.06 1020.98 1020.87 1020.72 1020.54 1020.34 1020.11 1019.87 1019.61 1019.35 1019.09 1018.81 1018.52 1018.22 1017.88 1017.51 1017.08
Thickness
5525 5528 5522 5515 5513 5506 5496 5497 5498 5516 5519 5525 5524 5521 5521 5523 5528 5535 5546 5554 5560 5567 5573 5576 5578 5578 5576 5574 5572 5573 5572 5568 5560 5552 5543 5534 5526 5518 5510 5502 5495 5489 5484 5478
5524 5533 5534 5529 5529 5522 5515 5509 5506 5509 5516 5524 5522 5519 5520 5523 5528 5538 5549 5554 5557 5561 5564 5566 5567 5567 5566 5565 5564 5564 5562 5554 5547 5539 5531 5522 5514 5506 5498 5491 5484 5478 5473 5467
5537 5545 5540 5543 5542 5536 5530 5528 5522 5519 5529 5530 5525 5524 5525 5528 5536 5546 5554 5557 5556 5558 5560 5560 5560 5560 5559 5558 5557 5554 5549 5541 5534 5526 5518 5509 5502 5494 5487 5480 5474 5468 5462 5457
5531 5538 5545 5555 5549 5542 5540 5542 5541 5539 5540 5538 5535 5534 5536 5538 5545 5553 5560 5561 5559 5557 5555 5554 5554 5554 5553 5551 5548 5542 5536 5529 5521 5514 5505 5497 5490 5484 5477 5471 5465 5459 5453 5447
5531 5540 5551 5560 5555 5548 5545 5549 5553 5553 5553 5550 5548 5547 5549 5543 5547 5557 5564 5563 5559 5554 5551 5550 5549 5548 5546 5541 5536 5530 5524 5516 5509 5502 5495 5488 5481 5474 5467 5461 5455 5449 5443 5437
5533 5539 5552 5564 5563 5556 5551 5560 5561 5560 5562 5561 5557 5559 5558 5542 5550 5558 5559 5556 5552 5549 5546 5544 5541 5539 5537 5531 5525 5518 5512 5504 5498 5491 5486 5479 5471 5463 5456 5450 5444 5438 5433 5427
5536 5541 5559 5571 5567 5565 5567 5568 5566 5564 5567 5568 5565 5559 5544 5541 5544 5547 5547 5546 5544 5542 5539 5535 5533 5531 5527 5520 5512 5505 5499 5493 5487 5481 5474 5467 5459 5452 5446 5440 5435 5429 5424 5418
5543 5545 5560 5575 5570 5571 5574 5572 5568 5568 5569 5567 5555 5543 5538 5537 5536 5537 5536 5536 5535 5533 5528 5525 5524 5522 5515 5506 5499 5494 5489 5482 5475 5468 5461 5454 5448 5441 5436 5430 5426 5420 5414 5409
5557 5567 5578 5573 5573 5575 5571 5571 5570 5568 5566 5559 5549 5542 5536 5533 5531 5530 5529 5527 5526 5524 5520 5516 5513 5510 5503 5493 5489 5484 5477 5469 5462 5455 5449 5443 5438 5433 5426 5420 5416 5411 5405 5399
5557 5570 5576 5576 5577 5574 5566 5564 5562 5562 5559 5556 5548 5539 5533 5529 5526 5523 5521 5520 5518 5516 5512 5506 5501 5496 5491 5484 5478 5473 5465 5457 5451 5445 5439 5433 5428 5422 5417 5411 5406 5401 5395 5389
5559 5571 5575 5579 5573 5567 5558 5556 5555 5554 5552 5548 5541 5534 5529 5525 5520 5517 5514 5512 5510 5507 5501 5494 5489 5484 5478 5473 5468 5461 5454 5447 5441 5435 5430 5424 5418 5411 5406 5400 5393 5388 5383 5375
5569 5574 5574 5575 5564 5558 5556 5552 5549 5546 5541 5537 5534 5528 5523 5518 5514 5510 5507 5503 5500 5496 5491 5485 5479 5473 5467 5462 5458 5452 5445 5438 5432 5426 5421 5415 5409 5403 5395 5389 5382 5376 5369 5360
5567 5563 5563 5558 5552 5550 5549 5545 5542 5540 5535 5530 5524 5520 5516 5510 5505 5501 5498 5495 5491 5487 5481 5475 5469 5462 5455 5451 5447 5443 5437 5430 5424 5418 5412 5406 5400 5394 5389 5381 5372 5365 5356 5346
5558 5556 5557 5553 5549 5544 5541 5537 5534 5530 5526 5522 5517 5512 5508 5503 5497 5493 5489 5485 5481 5476 5470 5464 5458 5451 5445 5441 5436 5431 5425 5419 5414 5408 5402 5396 5390 5384 5378 5371 5364 5356 5345 5334
5554 5553 5554 5545 5538 5534 5532 5530 5526 5521 5516 5511 5508 5505 5502 5497 5490 5483 5479 5475 5470 5465 5459 5454 5447 5440 5434 5430 5425 5420 5415 5409 5403 5398 5391 5386 5380 5374 5367 5359 5352 5344 5335 5324
5542 5540 5537 5535 5531 5528 5527 5526 5522 5515 5510 5505 5502 5497 5492 5486 5480 5474 5470 5467 5463 5456 5449 5443 5436 5429 5424 5420 5415 5410 5405 5397 5392 5388 5382 5377 5370 5363 5355 5347 5339 5330 5321 5311
5534 5527 5524 5522 5525 5525 5525 5524 5519 5512 5506 5500 5493 5487 5482 5478 5472 5466 5461 5457 5452 5445 5438 5432 5426 5420 5414 5410 5405 5400 5395 5388 5382 5378 5372 5365 5358 5351 5343 5333 5324 5314 5304 5292
5544 5543 5539 5537 5532 5526 5521 5516 5511 5506 5500 5491 5485 5482 5479 5475 5467 5458 5451 5445 5439 5432 5426 5422 5416 5410 5405 5399 5395 5390 5385 5379 5373 5367 5361 5354 5347 5338 5329 5319 5308 5297 5286 5274
5536 5536 5535 5532 5529 5524 5517 5510 5504 5497 5490 5485 5482 5478 5472 5464 5456 5449 5443 5438 5432 5424 5416 5411 5406 5401 5395 5390 5386 5381 5376 5370 5363 5357 5349 5341 5333 5325 5314 5302 5291 5279 5267 5256
5529 5529 5528 5525 5520 5516 5510 5503 5496 5490 5485 5480 5474 5467 5459 5451 5445 5439 5435 5428 5423 5417 5409 5403 5397 5392 5387 5382 5377 5372 5367 5361 5354 5346 5338 5329 5320 5308 5297 5285 5272 5259 5248 5239
5521 5519 5516 5513 5509 5504 5500 5496 5491 5484 5477 5473 5469 5461 5450 5441 5435 5430 5425 5417 5409 5405 5400 5395 5389 5384 5379 5374 5369 5364 5358 5351 5343 5335 5325 5315 5304 5292 5280 5266 5253 5241 5232 5226
5509 5508 5505 5502 5498 5493 5489 5486 5483 5476 5470 5464 5456 5448 5440 5431 5425 5420 5415 5410 5402 5397 5392 5387 5382 5377 5372 5366 5361 5355 5348 5340 5332 5323 5312 5301 5289 5276 5263 5248 5236 5226 5219 5217
5498 5496 5494 5492 5488 5483 5478 5475 5470 5466 5460 5453 5446 5439 5433 5425 5420 5414 5405 5399 5394 5389 5384 5380 5375 5370 5363 5358 5352 5345 5337 5329 5320 5310 5299 5287 5273 5259 5245 5232 5222 5216 5213 5214
5486 5484 5481 5478 5475 5472 5466 5460 5456 5452 5447 5441 5434 5428 5422 5416 5408 5404 5399 5392 5387 5382 5377 5373 5367 5361 5354 5348 5342 5335 5327 5318 5308 5298 5286 5272 5258 5243 5230 5221 5215 5212 5213 5216
5474 5470 5468 5466 5465 5460 5452 5447 5441 5436 5432 5425 5418 5414 5410 5407 5401 5394 5389 5383 5378 5372 5368 5363 5357 5351 5345 5339 5332 5325 5317 5307 5298 5287 5274 5259 5244 5231 5223 5217 5214 5215 5218 5223
5462 5461 5459 5458 5453 5447 5444 5440 5435 5427 5421 5413 5405 5401 5397 5393 5388 5383 5377 5372 5368 5363 5357 5352 5347 5342 5336 5330 5323 5316 5307 5298 5287 5274 5260 5247 5236 5227 5222 5219 5219 5222 5227 5232
5449 5447 5445 5441 5438 5438 5435 5431 5426 5419 5413 5407 5397 5390 5386 5381 5376 5371 5367 5362 5357 5353 5348 5343 5338 5333 5327 5321 5315 5307 5299 5289 5277 5265 5252 5242 5234 5229 5226 5226 5228 5232 5236 5240